Huntsville Madison, AL

12:30 AM CST on January 17, 2018 (GMT -0600)
Huntsville Madison

Weather History for KMDQ - January, 2014

Change the Weather History Date:

Friday, January 24, 2014

  Actual Average (KHSV) Record (KHSV)
Temperature  
Mean Temperature 18 °F -  
Max Temperature 30 °F 51 °F 75 °F (1967)
Min Temperature 6 °F 33 °F -4 °F (1963)
Degree Days  
Heating Degree Days 47    
Moisture  
Dew Point -5 °F    
Average Humidity 40    
Maximum Humidity 72    
Minimum Humidity 13    
Precipitation  
Precipitation 0.00 in - - ()
Sea Level Pressure  
Sea Level Pressure 30.50 in    
Wind  
Wind Speed 5 mph (SSW)    
Max Wind Speed 12 mph    
Max Gust Speed -    
Visibility 10 miles    
Events      
Averages and records for this station are not official NWS values.
T = Trace of Precipitation, MM = Missing Value Source: NWS Daily Summary

Daily Weather History Graph

Daily Weather History Graph

Search for Another Location

Airport or City:

Trip Planner

Search our weather history database for the weather conditions in past years. The results will help you decide how hot, cold, wet, or windy it might be!

Date:

Astronomy

Jan. 24, 2014 Rise Set
Actual Time 6:49 AM CST 5:07 PM CST
Civil Twilight 6:22 AM CST 5:34 PM CST
Nautical Twilight 5:52 AM CST 6:04 PM CST
Astronomical Twilight 5:22 AM CST 6:34 PM CST
Moon 12:19 AM CST (1/24) 11:23 AM CST (1/24)
Length of Visible Light 11h 11m
Length of Day
10h 17m
Last Quarter, 44% of the Moon is Illuminated
Jan 24
Last Quarter
Jan 30
New
Feb 6
First Quarter
Feb 14
Full
Feb 22
Last Quarter

Hourly Weather History & Observations

Time (CST) Temp. Windchill Dew Point Humidity Pressure Visibility Wind Dir Wind Speed Gust Speed Precip Events Conditions
12:15 AM 14.0 °F 0.5 °F -4.0 °F 45% 30.68 in 10.0 mi North 11.5 mph - N/A   Clear
12:35 AM 14.0 °F 2.0 °F -4.0 °F 45% 30.69 in 10.0 mi North 9.2 mph - N/A   Clear
12:55 AM 12.2 °F 1.7 °F -2.2 °F 53% 30.69 in 10.0 mi North 6.9 mph - N/A   Clear
1:15 AM 14.0 °F - -4.0 °F 45% 30.69 in 10.0 mi Calm Calm - N/A   Clear
1:35 AM 12.2 °F 0.7 °F -2.2 °F 53% 30.69 in 10.0 mi North 8.1 mph - N/A   Clear
1:55 AM 12.2 °F 2.9 °F -2.2 °F 53% 30.69 in 10.0 mi North 5.8 mph - N/A   Clear
2:15 AM 12.2 °F 1.7 °F -0.4 °F 57% 30.70 in 10.0 mi North 6.9 mph - N/A   Clear
2:35 AM 12.2 °F 0.7 °F -0.4 °F 57% 30.69 in 10.0 mi NNE 8.1 mph - N/A   Clear
2:55 AM 10.4 °F -0.4 °F -2.2 °F 57% 30.69 in 10.0 mi NNE 6.9 mph - N/A   Clear
3:15 AM 10.4 °F 2.2 °F -0.4 °F 62% 30.69 in 10.0 mi NNE 4.6 mph - N/A   Clear
3:35 AM 10.4 °F 2.2 °F -2.2 °F 57% 30.69 in 10.0 mi NNE 4.6 mph - N/A   Clear
3:55 AM 10.4 °F 4.0 °F -2.2 °F 57% 30.68 in 10.0 mi NNE 3.5 mph - N/A   Clear
4:15 AM 8.6 °F - -2.2 °F 62% 30.67 in 10.0 mi Calm Calm - N/A   Clear
4:35 AM 8.6 °F 2.0 °F -2.2 °F 62% 30.67 in 10.0 mi North 3.5 mph - N/A   Clear
4:55 AM 8.6 °F - -2.2 °F 62% 30.67 in 10.0 mi Calm Calm - N/A   Clear
5:15 AM 6.8 °F - -0.4 °F 72% 30.67 in 10.0 mi Calm Calm - N/A   Clear
5:35 AM 8.6 °F - -0.4 °F 67% 30.67 in 10.0 mi Calm Calm - N/A   Clear
5:55 AM 8.6 °F 0.1 °F -2.2 °F 62% 30.67 in 10.0 mi North 4.6 mph - N/A   Clear
6:15 AM 6.8 °F - -0.4 °F 72% 30.66 in 10.0 mi Calm Calm - N/A   Clear
6:35 AM 6.8 °F - -0.4 °F 72% 30.66 in 10.0 mi Calm Calm - N/A   Clear
6:55 AM 6.8 °F - -0.4 °F 72% 30.65 in 10.0 mi Calm Calm - N/A   Clear
7:15 AM 6.8 °F - -0.4 °F 72% 30.66 in 10.0 mi Calm Calm - N/A   Clear
7:35 AM 8.6 °F - -0.4 °F 67% 30.65 in 10.0 mi Calm Calm - N/A   Clear
7:55 AM 8.6 °F - -0.4 °F 67% 30.65 in 10.0 mi Calm Calm - N/A   Clear
8:15 AM 10.4 °F - -0.4 °F 62% 30.65 in 10.0 mi Calm Calm - N/A   Clear
8:35 AM 12.2 °F - -0.4 °F 57% 30.65 in 10.0 mi Calm Calm - N/A   Clear
8:55 AM 12.2 °F - -0.4 °F 57% 30.64 in 10.0 mi Calm Calm - N/A   Clear
9:15 AM 12.2 °F - -0.4 °F 57% 30.65 in 10.0 mi Calm Calm - N/A   Clear
9:35 AM 14.0 °F - -0.4 °F 53% 30.64 in 10.0 mi Calm Calm - N/A   Clear
9:55 AM 15.8 °F - -0.4 °F 49% 30.64 in 10.0 mi Calm Calm - N/A   Clear
10:15 AM 17.6 °F - -0.4 °F 45% 30.64 in 10.0 mi Calm Calm - N/A   Clear
10:35 AM 19.4 °F 14.3 °F -0.4 °F 42% 30.63 in 10.0 mi South 3.5 mph - N/A   Clear
10:55 AM 19.4 °F 12.8 °F -4.0 °F 36% 30.62 in 10.0 mi SSW 4.6 mph - N/A   Clear
11:15 AM 21.2 °F - -4.0 °F 33% 30.61 in 7.0 mi Calm Calm - N/A   Clear
11:35 AM 21.2 °F 16.4 °F -5.8 °F 30% 30.58 in 10.0 mi SW 3.5 mph - N/A   Clear
11:55 AM 23.0 °F - -7.6 °F 26% 30.56 in 10.0 mi Calm Calm - N/A   Clear
12:15 PM 23.0 °F - -7.6 °F 26% 30.54 in 10.0 mi Calm Calm - N/A   Clear
12:35 PM 26.6 °F 21.2 °F -7.6 °F 22% 30.52 in 10.0 mi West 4.6 mph - N/A   Clear
12:55 PM 26.6 °F - -7.6 °F 22% 30.51 in 10.0 mi Calm Calm - N/A   Clear
1:15 PM 26.6 °F 21.2 °F -9.4 °F 21% 30.49 in 7.0 mi WSW 4.6 mph - N/A   Clear
1:35 PM 26.6 °F - -11.2 °F 19% 30.48 in 10.0 mi Calm Calm - N/A   Clear
1:55 PM 26.6 °F - -13.0 °F 17% 30.46 in 10.0 mi Calm Calm - N/A   Clear
2:15 PM 28.4 °F 23.3 °F -13.0 °F 16% 30.44 in 10.0 mi SSW 4.6 mph - N/A   Clear
2:35 PM 28.4 °F - -14.8 °F 15% 30.44 in 10.0 mi Calm Calm - N/A   Clear
2:55 PM 28.4 °F 21.2 °F -14.8 °F 15% 30.43 in 10.0 mi SSW 6.9 mph - N/A   Clear
3:15 PM 28.4 °F 23.3 °F -16.6 °F 13% 30.42 in 10.0 mi SSW 4.6 mph - N/A   Clear
3:35 PM 30.2 °F 23.4 °F -14.8 °F 14% 30.40 in 10.0 mi SSW 6.9 mph - N/A   Clear
3:55 PM 30.2 °F 25.4 °F -13.0 °F 15% 30.39 in 10.0 mi South 4.6 mph - N/A   Clear
4:15 PM 30.2 °F 23.4 °F -13.0 °F 15% 30.37 in 10.0 mi South 6.9 mph - N/A   Clear
4:35 PM 28.4 °F 21.2 °F -9.4 °F 19% 30.36 in 10.0 mi South 6.9 mph - N/A   Clear
4:55 PM 28.4 °F 22.2 °F -9.4 °F 19% 30.35 in 10.0 mi SSW 5.8 mph - N/A   Clear
5:15 PM 24.8 °F 17.9 °F -5.8 °F 26% 30.34 in 10.0 mi SW 5.8 mph - N/A   Clear
5:35 PM 23.0 °F 17.0 °F -5.8 °F 28% 30.34 in 10.0 mi SW 4.6 mph - N/A   Clear
5:55 PM 23.0 °F - -4.0 °F 31% 30.34 in 10.0 mi Calm Calm - N/A   Clear
6:15 PM 23.0 °F - -4.0 °F 31% 30.34 in 10.0 mi Calm Calm - N/A   Clear
6:35 PM 23.0 °F - -2.2 °F 33% 30.33 in 10.0 mi Calm Calm - N/A   Clear
6:55 PM 21.2 °F 13.6 °F -2.2 °F 36% 30.32 in 10.0 mi SSE 5.8 mph - N/A   Clear
7:15 PM 21.2 °F 14.9 °F -4.0 °F 33% 30.31 in 10.0 mi SE 4.6 mph - N/A   Clear
7:35 PM 21.2 °F 16.4 °F -0.4 °F 39% 30.29 in 10.0 mi SSE 3.5 mph - N/A   Clear
7:55 PM 21.2 °F 12.6 °F -0.4 °F 39% 30.27 in 10.0 mi South 6.9 mph - N/A   Clear
8:15 PM 23.0 °F 15.8 °F -5.8 °F 28% 30.27 in 10.0 mi South 5.8 mph - N/A   Clear
8:35 PM 24.8 °F 16.9 °F -7.6 °F 24% 30.26 in 10.0 mi South 6.9 mph - N/A   Clear
8:55 PM 23.0 °F 17.0 °F -5.8 °F 28% 30.27 in 10.0 mi SSW 4.6 mph - N/A   Clear
9:15 PM 23.0 °F 13.9 °F -4.0 °F 31% 30.28 in 10.0 mi South 8.1 mph - N/A   Clear
9:35 PM 24.8 °F 16.9 °F -5.8 °F 26% 30.26 in 10.0 mi South 6.9 mph - N/A   Clear
9:55 PM 24.8 °F 16.1 °F -5.8 °F 26% 30.25 in 10.0 mi South 8.1 mph - N/A   Clear
10:15 PM 24.8 °F 16.9 °F -7.6 °F 24% 30.24 in 10.0 mi South 6.9 mph - N/A   Clear
10:35 PM 23.0 °F 15.8 °F -5.8 °F 28% 30.23 in 10.0 mi South 5.8 mph - N/A   Clear
10:55 PM 23.0 °F 15.8 °F -5.8 °F 28% 30.21 in 10.0 mi South 5.8 mph - N/A   Clear
11:15 PM 24.8 °F 14.0 °F -7.6 °F 24% 30.20 in 10.0 mi South 11.5 mph - N/A   Clear
11:35 PM 24.8 °F 14.6 °F -5.8 °F 26% 30.19 in 10.0 mi South 10.4 mph - N/A   Clear
11:55 PM 24.8 °F 15.3 °F -7.6 °F 24% 30.17 in 10.0 mi South 9.2 mph - N/A   Clear